Location: Columbus
(35.2256°N, 82.1549°W)
Time: 19:15:06
(UTC-05:00)

Envisat - Pass Details

Date: 06 December 2021
Orbit: 764 x 766 km, 98.2° (Epoch: 21 January)

Event Time Altitude Azimuth Distance (km) Brightness Sun altitude
Rises 04:21:44 0° 31° (NNE) 3,235 6.5 -36.3°
Reaches altitude 10° 04:24:41 10° 48° (NE) 2,303 5.9 -35.7°
Maximum altitude 04:28:18 19° 94° (E) 1,736 5.4 -35.0°
Drops below altitude 10° 04:31:53 10° 140° (SE) 2,292 5.9 -34.3°
Sets 04:34:48 0° 157° (SSE) 3,213 6.6 -33.7°
